sat.trackr.live / text

‹ back to catalog

STARLINK-34844

NORAD 66486 · 2025-263B

PAYLOAD ACTIVE UNKNOWN

§ Identity

Operator
Country
US
Launch date
2025-11-15
Launch site
AFETR
Launch vehicle
Mass (kg)
RCS (m²)

Purposes: comms

External: N2YO · Heavens-Above · Gunter

§ Orbital elements

Epoch: 2026-05-24T19:23:04.813440Z

Period
94.27 min
Inclination
43.0000°
Eccentricity
0.0001466
Mean motion
15.27580153 rev/d
Perigee alt
482.0 km
Apogee alt
484.1 km
Semi-major
6,861.2 km
B*
9.2180e-4
RAAN
280.5252°
Arg perigee
282.3986°
Mean anomaly
77.6702°
Rev number
3,049

§ Raw data

STARLINK-348441 66486U 25263B   26144.80769460  .00025191  00000+0  92180-3 0  99952 66486  43.0000 280.5252 0001466 282.3986  77.6702 15.27580153 30490

JSON: /api/v1/satellites/66486 · /tle

For live sub-satellite position, see the globe view (requires WebGL).

§ Visibility from observer

Set your observer location to see the next 7 days of passes ≥ 10°. The values pass through the URL so the page stays shareable.

No JS? Fill the form by hand. The geolocation button needs JavaScript.